Location: *
(50.8512°N, 5.6907°E)
Time: 04:08:18
(UTC+00:00)

SL-8 Rocket - Pass Details

Date: 09 April 2020
Orbit: 957 x 991 km, 82.9° (Epoch: 06 June)

Event Time Altitude Azimuth Distance (km) Brightness Sun altitude
Rises 19:20:32 0° 352° (N) 3,710 7.5 -9.3°
Reaches altitude 10° 19:23:11 10° 359° (N) 2,761 6.7 -9.7°
Maximum altitude 19:29:17 48° 73° (ENE) 1,282 4.4 -10.5°
Enters shadow 19:35:19 10° 146° (SSE) 2,736 5.8 -11.4°
